Date String (YYYY-MM-DD hh:mm:ss) UTC,Instrument flags,Ambient pressure (hPa),Sample flow (lpm),Bypass flow (lpm),Sample temperature (°C),Ambient temperature (°C),ASC tube jacket temperature (°C),LED temperature (°C),Box temperature (°C),Sample RH (%),Span deviation,Mass concentration (μg/m³),Mass concentration (μg/m³),Mass concentration (μg/m³)
DateTimeUTC,F1_M11,P_M11,Q1_M11,Q2_M11,T1_M11,T2_M11,T3_M11,T4_M11,T5_M11,U1_M11,ZSPAN_M11,X0_M11,X2_M11,X1_M11
2022-06-15 09:00:00,,0824.0,5.00,0.00,28.9,27.7,00.0,37.9,30.7,18.1,0000.0,0013.83,0005.33,0002.68
2022-06-15 09:01:00,,0824.0,5.01,0.00,28.9,27.7,00.0,37.9,30.7,18.1,0000.0,0013.98,0005.36,0002.68
2022-06-15 09:02:00,,0824.0,5.01,0.00,28.9,27.7,00.0,37.9,30.7,18.1,0000.0,0014.00,0005.35,0002.66
2022-06-15 09:03:00,,0824.0,5.00,0.00,28.9,27.7,00.0,37.9,30.7,18.1,0000.0,0013.81,0005.34,0002.65
2022-06-15 09:04:00,,0824.0,5.01,0.00,28.8,27.6,00.0,37.9,30.7,18.1,0000.0,0013.03,0005.37,0002.65
2022-06-15 09:05:00,,0824.0,4.98,0.00,28.8,27.6,00.0,37.9,30.7,18.1,0000.0,0013.17,0005.43,0002.68
2022-06-15 09:06:00,,0824.1,5.01,0.00,28.8,27.6,00.0,37.9,30.7,18.2,0000.0,0012.99,0005.38,0002.66
2022-06-15 09:07:00,,0824.1,5.01,0.00,28.8,27.6,00.0,37.9,30.7,18.2,0000.0,0012.54,0005.33,0002.65
2022-06-15 09:08:00,,0824.1,5.00,0.00,28.8,27.6,00.0,37.8,30.6,18.2,0000.0,0012.58,0005.31,0002.65
2022-06-15 09:09:00,,0824.1,5.00,0.00,28.8,27.6,00.0,37.8,30.6,18.2,0000.0,0012.88,0005.33,0002.66
2022-06-15 09:10:00,,0824.1,5.00,0.00,28.8,27.6,00.0,37.8,30.6,18.2,0000.0,0013.14,0005.33,0002.67
2022-06-15 09:11:00,,0824.1,5.00,0.00,28.8,27.6,00.0,37.8,30.6,18.2,0000.0,0013.21,0005.27,0002.66
2022-06-15 09:12:00,,0824.1,5.00,0.00,28.8,27.6,00.0,37.8,30.6,18.2,0000.0,0013.00,0005.17,0002.65
2022-06-15 09:13:00,,0824.1,5.00,0.00,28.8,27.6,00.0,37.8,30.6,18.2,0000.0,0012.98,0005.17,0002.66
2022-06-15 09:14:00,,0824.2,4.99,0.00,28.7,27.6,00.0,37.8,30.6,18.2,0000.0,0013.10,0005.19,0002.65
2022-06-15 09:15:00,,0824.2,4.99,0.00,28.7,27.5,00.0,37.8,30.6,18.2,0000.0,0013.04,0005.17,0002.65
2022-06-15 09:16:00,,0824.3,5.00,0.00,28.7,27.5,00.0,37.8,30.6,18.2,0000.0,0013.43,0005.11,0002.63
2022-06-15 09:17:00,,0824.3,5.01,0.00,28.7,27.5,00.0,37.8,30.6,18.2,0000.0,0013.36,0005.09,0002.65
2022-06-15 09:18:00,,0824.3,5.00,0.00,28.7,27.5,00.0,37.7,30.6,18.3,0000.0,0013.20,0005.05,0002.64
2022-06-15 09:19:00,,0824.4,5.00,0.00,28.7,27.5,00.0,37.7,30.5,18.3,0000.0,0013.33,0005.08,0002.64
2022-06-15 09:20:00,,0824.4,5.00,0.00,28.7,27.5,00.0,37.7,30.5,18.4,0000.0,0013.11,0005.04,0002.63
2022-06-15 09:21:00,,0824.4,5.01,0.00,28.7,27.5,00.0,37.7,30.5,18.4,0000.0,0012.88,0005.01,0002.62
2022-06-15 09:22:00,,0824.5,4.98,0.00,28.7,27.5,00.0,37.7,30.5,18.4,0000.0,0012.77,0005.06,0002.63
2022-06-15 09:23:00,,0824.5,4.99,0.00,28.7,27.5,00.0,37.7,30.5,18.5,0000.0,0012.56,0005.06,0002.64
2022-06-15 09:24:00,,0824.5,5.01,0.00,28.7,27.5,00.0,37.7,30.5,18.4,0000.0,0012.59,0005.08,0002.63
2022-06-15 09:25:00,,0824.5,5.00,0.00,28.7,27.5,00.0,37.7,30.5,18.4,0000.0,0012.43,0005.03,0002.63
2022-06-15 09:26:00,,0824.5,5.00,0.00,28.7,27.5,00.0,37.7,30.5,18.4,0000.0,0012.98,0004.98,0002.59
2022-06-15 09:27:00,,0824.5,5.00,0.00,28.7,27.5,00.0,37.7,30.5,18.4,0000.0,0012.65,0004.94,0002.58
2022-06-15 09:28:00,,0824.4,5.00,0.00,28.7,27.5,00.0,37.7,30.5,18.4,0000.0,0012.74,0004.94,0002.57
2022-06-15 09:29:00,,0824.4,5.00,0.00,28.7,27.5,00.0,37.7,30.5,18.5,0000.0,0013.04,0004.97,0002.58
2022-06-15 09:30:00,,0824.4,4.99,0.00,28.7,27.5,00.0,37.7,30.5,18.5,0000.0,0012.77,0004.90,0002.55
2022-06-15 09:31:00,,0824.4,5.00,0.00,28.7,27.5,00.0,37.6,30.5,18.5,0000.0,0012.77,0004.87,0002.53
2022-06-15 09:32:00,,0824.4,5.01,0.00,28.7,27.5,00.0,37.6,30.5,18.4,0000.0,0013.35,0004.88,0002.52
2022-06-15 09:33:00,,0824.4,5.00,0.00,28.7,27.5,00.0,37.6,30.5,18.5,0000.0,0013.27,0004.79,0002.50
2022-06-15 09:34:00,,0824.5,5.00,0.00,28.7,27.5,00.0,37.6,30.5,18.5,0000.0,0013.71,0004.85,0002.50
2022-06-15 09:35:00,,0824.4,5.01,0.00,28.7,27.5,00.0,37.6,30.5,18.5,0000.0,0013.70,0004.80,0002.48
2022-06-15 09:36:00,,0824.5,5.00,0.00,28.7,27.5,00.0,37.6,30.5,18.6,0000.0,0013.66,0004.77,0002.46
2022-06-15 09:37:00,,0824.5,5.00,0.00,28.7,27.5,00.0,37.6,30.5,18.6,0000.0,0013.23,0004.80,0002.48
2022-06-15 09:38:00,,0824.5,4.98,0.00,28.7,27.5,00.0,37.6,30.6,18.6,0000.0,0013.31,0004.86,0002.46
2022-06-15 09:39:00,,0824.5,5.00,0.00,28.7,27.6,00.0,37.6,30.6,18.6,0000.0,0013.75,0004.88,0002.47
2022-06-15 09:40:00,,0824.4,5.00,0.00,28.7,27.6,00.0,37.6,30.6,18.6,0000.0,0013.73,0004.84,0002.45
2022-06-15 09:41:00,,0824.5,5.00,0.00,28.7,27.6,00.0,37.6,30.6,18.5,0000.0,0013.64,0004.80,0002.43
2022-06-15 09:42:00,,0824.6,5.00,0.00,28.7,27.6,00.0,37.6,30.6,18.4,0000.0,0013.88,0004.83,0002.43
2022-06-15 09:43:00,,0824.5,5.00,0.00,28.7,27.7,00.0,37.6,30.6,18.5,0000.0,0013.48,0004.84,0002.42
2022-06-15 09:44:00,,0824.6,5.00,0.00,28.7,27.7,00.0,37.6,30.7,18.5,0000.0,0013.51,0004.85,0002.41
2022-06-15 09:45:00,,0824.6,5.00,0.00,28.7,27.7,00.0,37.6,30.7,18.5,0000.0,0013.35,0004.78,0002.39
2022-06-15 09:46:00,,0824.6,5.01,0.00,28.8,27.7,00.0,37.6,30.7,18.6,0000.0,0013.68,0004.82,0002.39
2022-06-15 09:47:00,,0824.5,5.00,0.00,28.8,27.7,00.0,37.7,30.7,18.6,0000.0,0014.19,0004.83,0002.41
2022-06-15 09:48:00,,0824.7,5.00,0.00,28.8,27.7,00.0,37.7,30.7,18.6,0000.0,0014.06,0004.79,0002.42
2022-06-15 09:49:00,,0824.4,5.00,0.00,28.8,27.7,00.0,37.7,30.7,18.5,0000.0,0013.57,0004.75,0002.44
2022-06-15 09:50:00,,0824.5,4.99,0.00,28.8,27.7,00.0,37.7,30.7,18.5,0000.0,0013.01,0004.68,0002.43
2022-06-15 09:51:00,,0824.5,5.00,0.00,28.8,27.7,00.0,37.7,30.7,18.4,0000.0,0012.67,0004.63,0002.42
2022-06-15 09:52:00,,0824.7,5.01,0.00,28.8,27.7,00.0,37.7,30.7,18.4,0000.0,0012.71,0004.66,0002.45
2022-06-15 09:53:00,,0824.6,5.01,0.00,28.8,27.8,00.0,37.7,30.7,18.3,0000.0,0012.40,0004.66,0002.45
2022-06-15 09:54:00,,0824.6,4.99,0.00,28.8,27.8,00.0,37.7,30.7,18.3,0000.0,0011.92,0004.68,0002.46
2022-06-15 09:55:00,,0824.9,5.00,0.00,28.8,27.7,00.0,37.7,30.7,18.2,0000.0,0012.12,0004.72,0002.48
2022-06-15 09:56:00,,0824.9,5.01,0.00,28.8,27.7,00.0,37.7,30.7,18.2,0000.0,0011.87,0004.74,0002.47
2022-06-15 09:57:00,,0825.1,5.01,0.00,28.8,27.7,00.0,37.7,30.7,18.1,0000.0,0011.49,0004.70,0002.48
2022-06-15 09:58:00,,0824.7,5.00,0.00,28.8,27.7,00.0,37.7,30.7,18.1,0000.0,0011.81,0004.72,0002.50
2022-06-15 09:59:00,,0824.6,4.99,0.00,28.8,27.7,00.0,37.7,30.7,18.1,0000.0,0012.06,0004.77,0002.51
